Погода в Верх-Уймоне

Россия / Республика Алтай     50°12′48″N   85°44′15″E
темп.,
°C
ветер,
м/с
пор.,
м/с
влажн.,
%
обл.,
%
осадки,
мм/ч
давл.,
гПа
погр.,
м
17 июня, чт
чт1701:00+10с01670 0.0 101512
04:00+7ссв01780 0.0 101610
07:00+10св01690 0.0 101583
10:00+17ююз11550 0.0 1013472
13:00+21сз133614 0.0 10111780
16:00+21ююз343961 0.1 10091971
19:00+20юз234739 0.1 1009763
22:00+13с226950 0.1 101329
18 июня, пт
пт1801:00+11вюв117814 0.3 101311
04:00+8юв01865 0.0 101311
07:00+11ююв11784 0.0 101392
10:00+17вюв01590 0.0 1010479
13:00+22з12357 0.0 10081660
16:00+23зюз223221 0.0 10062145
19:00+21зюз23493 0.0 1005503
22:00+13ссз117316 0.0 100715
19 июня, сб
сб1901:00+11з017567 0.0 100815
04:00+10всв0177100 0.0 100813
07:00+12вюв0070100 0.0 100862
10:00+18юв0150100 0.0 1006478
13:00+21зюз244199 0.0 10051792
16:00+21ююв454540 0.1 10031556
19:00+19всв225636 0.1 1001339
22:00+13з117598 0.3 100323
20 июня, вс
вс2001:00+11з118338 0.4 100513
04:00+11в018796 0.4 100519
07:00+12св018580 0.6 100587
10:00+14ююз2478100 1.0 1005746
13:00+14з5668100 2.3 10081185
16:00+13зсз3558100 0.3 10091264
19:00+11зсз4556100 0.4 1011943
22:00+4з22771 0.0 101618
21 июня, пн
пн2101:00+2ссз01870 0.0 101817
04:00+1в11891 0.0 101814
07:00+5в11690 0.0 1016162
10:00+12ю144073 0.0 10111060
13:00+15ююз473254 0.0 10082303
16:00+16юз473975 0.0 10072115
19:00+14ююз475057 0.0 10061384
22:00+7юз1177100 0.0 100818